Voltar ao catálogo

STARLINK-34889

AtivoComunicaçõesVLEO
NORAD 65761·PAYLOAD·🇺🇸 United States

Lançado Sep 25, 2025 de Cape Canaveral Space Force Station

Loading…

Próximas Passagens (próximas 24 horas)

TLE

AtualizadoSource: CelesTrak SupGP

Época: Sep 14, 2026, 22:51 UTC

1 65761C 25216AD  26257.95256944 -.00096009  00000+0 -28360-2 0  2570
2 65761  53.1575 171.5541 0001255  92.3284 208.6164 15.34445289    11

Acompanhe STARLINK-34889 em tempo real com AllMySat

Download on the App Store